Today
| Time | Wind Dr | Wind Spd mph |
Wind Gust mph |
Hum In % |
Humid % |
TempI F |
Temp F |
Raw Bar in |
Tot Rain in |
UV | Solar W/sqm |
DailyRain in |
HourRain in |
24HrRain in |
RainRate in |
|---|---|---|---|---|---|---|---|---|---|---|---|---|---|---|---|
| 05/06/26 12:01:19 AM | 34 | 0.0 | 0.0 | 48 | 74 | 65.6 | 52.7 | 30.079 | 7.26 | 0.0 | 0 | 0.00 | 0.00 | 0.00 | 0.00 |
| 05/06/26 12:02:28 AM | 38 | 0.0 | 0.0 | 48 | 75 | 65.6 | 52.7 | 30.081 | 7.26 | 0.0 | 0 | 0.00 | 0.00 | 0.00 | 0.00 |
| 05/06/26 12:03:20 AM | 32 | 0.0 | 0.0 | 48 | 75 | 65.6 | 52.7 | 30.079 | 7.26 | 0.0 | 0 | 0.00 | 0.00 | 0.00 | 0.00 |
| 05/06/26 12:04:30 AM | 34 | 0.0 | 0.0 | 48 | 75 | 65.6 | 52.7 | 30.081 | 7.26 | 0.0 | 0 | 0.00 | 0.00 | 0.00 | 0.00 |
| 05/06/26 12:05:22 AM | 39 | 0.0 | 0.0 | 48 | 75 | 65.6 | 52.7 | 30.078 | 7.26 | 0.0 | 0 | 0.00 | 0.00 | 0.00 | 0.00 |
| 05/06/26 12:06:32 AM | 36 | 0.0 | 0.0 | 48 | 75 | 65.6 | 52.7 | 30.079 | 7.26 | 0.0 | 0 | 0.00 | 0.00 | 0.00 | 0.00 |
| 05/06/26 12:07:26 AM | 35 | 0.0 | 0.0 | 48 | 75 | 65.6 | 52.7 | 30.081 | 7.26 | 0.0 | 0 | 0.00 | 0.00 | 0.00 | 0.00 |
| 05/06/26 12:08:18 AM | 38 | 0.0 | 0.0 | 48 | 75 | 65.7 | 52.7 | 30.081 | 7.26 | 0.0 | 0 | 0.00 | 0.00 | 0.00 | 0.00 |
| 05/06/26 12:09:19 AM | 38 | 0.0 | 0.0 | 48 | 75 | 65.6 | 52.7 | 30.083 | 7.26 | 0.0 | 0 | 0.00 | 0.00 | 0.00 | 0.00 |
| 05/06/26 12:10:29 AM | 38 | 0.0 | 1.0 | 48 | 75 | 65.6 | 52.7 | 30.083 | 7.26 | 0.0 | 0 | 0.00 | 0.00 | 0.00 | 0.00 |
| 05/06/26 12:11:21 AM | 31 | 0.0 | 1.0 | 48 | 75 | 65.6 | 52.7 | 30.084 | 7.26 | 0.0 | 0 | 0.00 | 0.00 | 0.00 | 0.00 |
| 05/06/26 12:12:36 AM | 38 | 0.0 | 1.0 | 48 | 75 | 65.7 | 52.6 | 30.085 | 7.26 | 0.0 | 0 | 0.00 | 0.00 | 0.00 | 0.00 |
| 05/06/26 12:13:31 AM | 38 | 0.0 | 1.0 | 48 | 75 | 65.7 | 52.6 | 30.085 | 7.26 | 0.0 | 0 | 0.00 | 0.00 | 0.00 | 0.00 |
| 05/06/26 12:14:23 AM | 32 | 0.0 | 1.0 | 48 | 75 | 65.6 | 52.6 | 30.085 | 7.26 | 0.0 | 0 | 0.00 | 0.00 | 0.00 | 0.00 |
| 05/06/26 12:15:30 AM | 32 | 0.0 | 1.0 | 48 | 75 | 65.6 | 52.6 | 30.082 | 7.26 | 0.0 | 0 | 0.00 | 0.00 | 0.00 | 0.00 |
| 05/06/26 12:16:21 AM | 38 | 0.0 | 1.0 | 48 | 75 | 65.6 | 52.6 | 30.085 | 7.26 | 0.0 | 0 | 0.00 | 0.00 | 0.00 | 0.00 |
| 05/06/26 12:17:34 AM | 35 | 1.0 | 1.0 | 48 | 75 | 65.7 | 52.6 | 30.083 | 7.26 | 0.0 | 0 | 0.00 | 0.00 | 0.00 | 0.00 |
| 05/06/26 12:18:26 AM | 38 | 0.0 | 1.0 | 48 | 75 | 65.7 | 52.6 | 30.082 | 7.26 | 0.0 | 0 | 0.00 | 0.00 | 0.00 | 0.00 |
| 05/06/26 12:19:18 AM | 38 | 0.0 | 1.0 | 48 | 75 | 65.6 | 52.5 | 30.083 | 7.26 | 0.0 | 0 | 0.00 | 0.00 | 0.00 | 0.00 |
| 05/06/26 12:20:31 AM | 38 | 0.0 | 1.0 | 48 | 75 | 65.7 | 52.6 | 30.080 | 7.26 | 0.0 | 0 | 0.00 | 0.00 | 0.00 | 0.00 |
| 05/06/26 12:21:16 AM | 38 | 0.0 | 1.0 | 48 | 75 | 65.7 | 52.6 | 30.080 | 7.26 | 0.0 | 0 | 0.00 | 0.00 | 0.00 | 0.00 |
| 05/06/26 12:22:29 AM | 38 | 0.0 | 1.0 | 48 | 75 | 65.7 | 52.5 | 30.082 | 7.26 | 0.0 | 0 | 0.00 | 0.00 | 0.00 | 0.00 |
| 05/06/26 12:23:21 AM | 32 | 0.0 | 1.0 | 48 | 75 | 65.7 | 52.5 | 30.082 | 7.26 | 0.0 | 0 | 0.00 | 0.00 | 0.00 | 0.00 |
| 05/06/26 12:24:37 AM | 35 | 0.0 | 1.0 | 48 | 75 | 65.7 | 52.5 | 30.081 | 7.26 | 0.0 | 0 | 0.00 | 0.00 | 0.00 | 0.00 |
| 05/06/26 12:25:29 AM | 36 | 0.0 | 1.0 | 48 | 75 | 65.7 | 52.5 | 30.082 | 7.26 | 0.0 | 0 | 0.00 | 0.00 | 0.00 | 0.00 |
| 05/06/26 12:26:35 AM | 36 | 0.0 | 1.0 | 48 | 75 | 65.7 | 52.4 | 30.082 | 7.26 | 0.0 | 0 | 0.00 | 0.00 | 0.00 | 0.00 |
| 05/06/26 12:27:27 AM | 32 | 0.0 | 1.0 | 48 | 75 | 65.7 | 52.4 | 30.081 | 7.26 | 0.0 | 0 | 0.00 | 0.00 | 0.00 | 0.00 |
| 05/06/26 12:28:19 AM | 38 | 0.0 | 1.0 | 48 | 75 | 65.7 | 52.4 | 30.082 | 7.26 | 0.0 | 0 | 0.00 | 0.00 | 0.00 | 0.00 |
| 05/06/26 12:29:32 AM | 35 | 0.0 | 1.0 | 48 | 75 | 65.7 | 52.4 | 30.080 | 7.26 | 0.0 | 0 | 0.00 | 0.00 | 0.00 | 0.00 |
| 05/06/26 12:30:23 AM | 38 | 0.0 | 1.0 | 48 | 75 | 65.7 | 52.4 | 30.081 | 7.26 | 0.0 | 0 | 0.00 | 0.00 | 0.00 | 0.00 |
| 05/06/26 12:31:30 AM | 39 | 0.0 | 1.0 | 48 | 75 | 65.7 | 52.3 | 30.081 | 7.26 | 0.0 | 0 | 0.00 | 0.00 | 0.00 | 0.00 |
| 05/06/26 12:32:22 AM | 38 | 0.0 | 1.0 | 48 | 76 | 65.7 | 52.3 | 30.080 | 7.26 | 0.0 | 0 | 0.00 | 0.00 | 0.00 | 0.00 |
| 05/06/26 12:33:35 AM | 38 | 0.0 | 1.0 | 48 | 76 | 65.7 | 52.3 | 30.080 | 7.26 | 0.0 | 0 | 0.00 | 0.00 | 0.00 | 0.00 |
| 05/06/26 12:34:27 AM | 38 | 0.0 | 1.0 | 48 | 76 | 65.7 | 52.3 | 30.080 | 7.26 | 0.0 | 0 | 0.00 | 0.00 | 0.00 | 0.00 |
| 05/06/26 12:35:18 AM | 32 | 0.0 | 1.0 | 48 | 76 | 65.7 | 52.2 | 30.081 | 7.26 | 0.0 | 0 | 0.00 | 0.00 | 0.00 | 0.00 |
| 05/06/26 12:36:31 AM | 36 | 0.0 | 1.0 | 48 | 76 | 65.7 | 52.2 | 30.081 | 7.26 | 0.0 | 0 | 0.00 | 0.00 | 0.00 | 0.00 |
| 05/06/26 12:37:17 AM | 30 | 0.0 | 1.0 | 48 | 76 | 65.7 | 52.2 | 30.081 | 7.26 | 0.0 | 0 | 0.00 | 0.00 | 0.00 | 0.00 |
| 05/06/26 12:38:30 AM | 35 | 0.0 | 1.0 | 48 | 76 | 65.7 | 52.1 | 30.080 | 7.26 | 0.0 | 0 | 0.00 | 0.00 | 0.00 | 0.00 |
| 05/06/26 12:39:22 AM | 38 | 0.0 | 1.0 | 48 | 76 | 65.7 | 52.1 | 30.082 | 7.26 | 0.0 | 0 | 0.00 | 0.00 | 0.00 | 0.00 |
| 05/06/26 12:40:35 AM | 38 | 0.0 | 1.0 | 48 | 76 | 65.7 | 52.1 | 30.079 | 7.26 | 0.0 | 0 | 0.00 | 0.00 | 0.00 | 0.00 |
| 05/06/26 12:41:26 AM | 39 | 0.0 | 1.0 | 48 | 76 | 65.7 | 52.1 | 30.078 | 7.26 | 0.0 | 0 | 0.00 | 0.00 | 0.00 | 0.00 |
| 05/06/26 12:42:33 AM | 38 | 0.0 | 1.0 | 48 | 76 | 65.7 | 52.0 | 30.079 | 7.26 | 0.0 | 0 | 0.00 | 0.00 | 0.00 | 0.00 |
| 05/06/26 12:43:25 AM | 35 | 0.0 | 1.0 | 48 | 76 | 65.7 | 52.0 | 30.078 | 7.26 | 0.0 | 0 | 0.00 | 0.00 | 0.00 | 0.00 |
| 05/06/26 12:44:17 AM | 35 | 0.0 | 1.0 | 48 | 76 | 65.7 | 52.0 | 30.078 | 7.26 | 0.0 | 0 | 0.00 | 0.00 | 0.00 | 0.00 |
| 05/06/26 12:45:30 AM | 38 | 0.0 | 1.0 | 48 | 76 | 65.7 | 52.0 | 30.077 | 7.26 | 0.0 | 0 | 0.00 | 0.00 | 0.00 | 0.00 |
| 05/06/26 12:46:21 AM | 38 | 0.0 | 1.0 | 48 | 76 | 65.7 | 51.9 | 30.078 | 7.26 | 0.0 | 0 | 0.00 | 0.00 | 0.00 | 0.00 |
| 05/06/26 12:47:31 AM | 34 | 0.0 | 1.0 | 48 | 76 | 65.7 | 51.9 | 30.080 | 7.26 | 0.0 | 0 | 0.00 | 0.00 | 0.00 | 0.00 |
| 05/06/26 12:48:23 AM | 38 | 0.0 | 1.0 | 48 | 76 | 65.7 | 51.9 | 30.079 | 7.26 | 0.0 | 0 | 0.00 | 0.00 | 0.00 | 0.00 |
| 05/06/26 12:49:32 AM | 36 | 0.0 | 1.0 | 48 | 76 | 65.7 | 51.9 | 30.078 | 7.26 | 0.0 | 0 | 0.00 | 0.00 | 0.00 | 0.00 |
| 05/06/26 12:50:27 AM | 30 | 0.0 | 1.0 | 48 | 76 | 65.7 | 51.9 | 30.079 | 7.26 | 0.0 | 0 | 0.00 | 0.00 | 0.00 | 0.00 |
| 05/06/26 12:51:19 AM | 37 | 0.0 | 1.0 | 48 | 76 | 65.8 | 51.8 | 30.079 | 7.26 | 0.0 | 0 | 0.00 | 0.00 | 0.00 | 0.00 |
| 05/06/26 12:52:32 AM | 37 | 0.0 | 1.0 | 48 | 76 | 65.7 | 51.8 | 30.079 | 7.26 | 0.0 | 0 | 0.00 | 0.00 | 0.00 | 0.00 |
| 05/06/26 12:53:18 AM | 34 | 0.0 | 1.0 | 48 | 76 | 65.7 | 51.8 | 30.076 | 7.26 | 0.0 | 0 | 0.00 | 0.00 | 0.00 | 0.00 |
| 05/06/26 12:54:30 AM | 36 | 0.0 | 1.0 | 48 | 76 | 65.7 | 51.8 | 30.078 | 7.26 | 0.0 | 0 | 0.00 | 0.00 | 0.00 | 0.00 |
| 05/06/26 12:55:22 AM | 35 | 0.0 | 1.0 | 48 | 76 | 65.8 | 51.8 | 30.079 | 7.26 | 0.0 | 0 | 0.00 | 0.00 | 0.00 | 0.00 |
| 05/06/26 12:56:35 AM | 36 | 0.0 | 1.0 | 48 | 77 | 65.7 | 51.8 | 30.078 | 7.26 | 0.0 | 0 | 0.00 | 0.00 | 0.00 | 0.00 |
| 05/06/26 12:57:27 AM | 38 | 0.0 | 1.0 | 48 | 77 | 65.8 | 51.8 | 30.076 | 7.26 | 0.0 | 0 | 0.00 | 0.00 | 0.00 | 0.00 |
| 05/06/26 12:58:37 AM | 38 | 0.0 | 1.0 | 48 | 77 | 65.8 | 51.8 | 30.076 | 7.26 | 0.0 | 0 | 0.00 | 0.00 | 0.00 | 0.00 |
| 05/06/26 12:59:25 AM | 34 | 0.0 | 1.0 | 48 | 77 | 65.8 | 51.8 | 30.076 | 7.26 | 0.0 | 0 | 0.00 | 0.00 | 0.00 | 0.00 |
| 05/06/26 1:00:20 AM | 35 | 0.0 | 1.0 | 48 | 77 | 65.8 | 51.8 | 30.075 | 7.26 | 0.0 | 0 | 0.00 | 0.00 | 0.00 | 0.00 |
| 05/06/26 1:01:30 AM | 35 | 0.0 | 1.0 | 48 | 77 | 65.8 | 51.7 | 30.076 | 7.26 | 0.0 | 0 | 0.00 | 0.00 | 0.00 | 0.00 |
| 05/06/26 1:02:22 AM | 36 | 0.0 | 1.0 | 48 | 77 | 65.8 | 51.8 | 30.076 | 7.26 | 0.0 | 0 | 0.00 | 0.00 | 0.00 | 0.00 |
| 05/06/26 1:03:28 AM | 38 | 0.0 | 1.0 | 48 | 77 | 65.8 | 51.8 | 30.076 | 7.26 | 0.0 | 0 | 0.00 | 0.00 | 0.00 | 0.00 |
| 05/06/26 1:04:20 AM | 37 | 0.0 | 1.0 | 48 | 77 | 65.8 | 51.8 | 30.075 | 7.26 | 0.0 | 0 | 0.00 | 0.00 | 0.00 | 0.00 |
| 05/06/26 1:05:33 AM | 38 | 0.0 | 1.0 | 48 | 77 | 65.8 | 51.8 | 30.075 | 7.26 | 0.0 | 0 | 0.00 | 0.00 | 0.00 | 0.00 |
| 05/06/26 1:06:22 AM | 32 | 0.0 | 1.0 | 48 | 77 | 65.8 | 51.7 | 30.076 | 7.26 | 0.0 | 0 | 0.00 | 0.00 | 0.00 | 0.00 |
| 05/06/26 1:07:35 AM | 36 | 0.0 | 1.0 | 48 | 77 | 65.8 | 51.7 | 30.076 | 7.26 | 0.0 | 0 | 0.00 | 0.00 | 0.00 | 0.00 |
| 05/06/26 1:08:27 AM | 38 | 0.0 | 1.0 | 48 | 78 | 65.8 | 51.7 | 30.076 | 7.26 | 0.0 | 0 | 0.00 | 0.00 | 0.00 | 0.00 |
| 05/06/26 1:09:15 AM | 37 | 0.0 | 1.0 | 48 | 78 | 65.8 | 51.7 | 30.077 | 7.26 | 0.0 | 0 | 0.00 | 0.00 | 0.00 | 0.00 |
| 05/06/26 1:10:28 AM | 37 | 0.0 | 1.0 | 48 | 78 | 65.8 | 51.7 | 30.077 | 7.26 | 0.0 | 0 | 0.00 | 0.00 | 0.00 | 0.00 |
| 05/06/26 1:11:20 AM | 38 | 0.0 | 1.0 | 48 | 78 | 65.8 | 51.7 | 30.080 | 7.26 | 0.0 | 0 | 0.00 | 0.00 | 0.00 | 0.00 |
| 05/06/26 1:12:33 AM | 34 | 0.0 | 1.0 | 48 | 78 | 65.8 | 51.7 | 30.078 | 7.26 | 0.0 | 0 | 0.00 | 0.00 | 0.00 | 0.00 |
| 05/06/26 1:13:25 AM | 38 | 0.0 | 1.0 | 48 | 78 | 65.8 | 51.8 | 30.080 | 7.26 | 0.0 | 0 | 0.00 | 0.00 | 0.00 | 0.00 |
| 05/06/26 1:14:34 AM | 36 | 0.0 | 1.0 | 48 | 78 | 65.8 | 51.8 | 30.076 | 7.26 | 0.0 | 0 | 0.00 | 0.00 | 0.00 | 0.00 |
| 05/06/26 1:15:26 AM | 34 | 0.0 | 1.0 | 48 | 78 | 65.8 | 51.8 | 30.079 | 7.26 | 0.0 | 0 | 0.00 | 0.00 | 0.00 | 0.00 |
| 05/06/26 1:16:18 AM | 38 | 0.0 | 1.0 | 48 | 78 | 65.8 | 51.8 | 30.075 | 7.26 | 0.0 | 0 | 0.00 | 0.00 | 0.00 | 0.00 |
| 05/06/26 1:17:28 AM | 38 | 0.0 | 1.0 | 48 | 78 | 65.8 | 51.8 | 30.077 | 7.26 | 0.0 | 0 | 0.00 | 0.00 | 0.00 | 0.00 |
| 05/06/26 1:18:19 AM | 32 | 0.0 | 1.0 | 48 | 78 | 65.8 | 51.8 | 30.077 | 7.26 | 0.0 | 0 | 0.00 | 0.00 | 0.00 | 0.00 |
| 05/06/26 1:19:29 AM | 38 | 0.0 | 1.0 | 48 | 78 | 65.9 | 51.8 | 30.072 | 7.26 | 0.0 | 0 | 0.00 | 0.00 | 0.00 | 0.00 |
| 05/06/26 1:20:21 AM | 36 | 0.0 | 1.0 | 48 | 78 | 65.8 | 51.8 | 30.072 | 7.26 | 0.0 | 0 | 0.00 | 0.00 | 0.00 | 0.00 |
| 05/06/26 1:21:34 AM | 30 | 0.0 | 1.0 | 48 | 78 | 65.8 | 51.8 | 30.073 | 7.26 | 0.0 | 0 | 0.00 | 0.00 | 0.00 | 0.00 |
| 05/06/26 1:22:23 AM | 37 | 0.0 | 1.0 | 48 | 78 | 65.8 | 51.8 | 30.075 | 7.26 | 0.0 | 0 | 0.00 | 0.00 | 0.00 | 0.00 |
| 05/06/26 1:23:35 AM | 34 | 0.0 | 1.0 | 48 | 78 | 65.9 | 51.8 | 30.076 | 7.26 | 0.0 | 0 | 0.00 | 0.00 | 0.00 | 0.00 |
| 05/06/26 1:24:27 AM | 38 | 0.0 | 1.0 | 48 | 78 | 65.9 | 51.8 | 30.073 | 7.26 | 0.0 | 0 | 0.00 | 0.00 | 0.00 | 0.00 |
| 05/06/26 1:25:34 AM | 38 | 0.0 | 1.0 | 48 | 78 | 65.9 | 51.8 | 30.072 | 7.26 | 0.0 | 0 | 0.00 | 0.00 | 0.00 | 0.00 |
| 05/06/26 1:26:26 AM | 34 | 0.0 | 1.0 | 48 | 78 | 65.9 | 51.8 | 30.072 | 7.26 | 0.0 | 0 | 0.00 | 0.00 | 0.00 | 0.00 |
| 05/06/26 1:27:20 AM | 38 | 0.0 | 1.0 | 48 | 78 | 65.9 | 51.8 | 30.075 | 7.26 | 0.0 | 0 | 0.00 | 0.00 | 0.00 | 0.00 |
| 05/06/26 1:28:30 AM | 32 | 0.0 | 1.0 | 48 | 78 | 65.9 | 51.7 | 30.073 | 7.26 | 0.0 | 0 | 0.00 | 0.00 | 0.00 | 0.00 |
| 05/06/26 1:29:22 AM | 37 | 0.0 | 1.0 | 48 | 78 | 65.8 | 51.7 | 30.073 | 7.26 | 0.0 | 0 | 0.00 | 0.00 | 0.00 | 0.00 |
| 05/06/26 1:30:32 AM | 38 | 0.0 | 1.0 | 48 | 78 | 65.9 | 51.7 | 30.072 | 7.26 | 0.0 | 0 | 0.00 | 0.00 | 0.00 | 0.00 |
| 05/06/26 1:31:24 AM | 34 | 0.0 | 1.0 | 48 | 78 | 65.9 | 51.7 | 30.073 | 7.26 | 0.0 | 0 | 0.00 | 0.00 | 0.00 | 0.00 |
| 05/06/26 1:32:34 AM | 36 | 0.0 | 1.0 | 48 | 78 | 65.9 | 51.7 | 30.075 | 7.26 | 0.0 | 0 | 0.00 | 0.00 | 0.00 | 0.00 |
| 05/06/26 1:33:25 AM | 36 | 0.0 | 1.0 | 48 | 79 | 65.9 | 51.7 | 30.072 | 7.26 | 0.0 | 0 | 0.00 | 0.00 | 0.00 | 0.00 |
| 05/06/26 1:34:17 AM | 37 | 0.0 | 1.0 | 48 | 79 | 65.9 | 51.7 | 30.072 | 7.26 | 0.0 | 0 | 0.00 | 0.00 | 0.00 | 0.00 |
| 05/06/26 1:35:27 AM | 38 | 0.0 | 1.0 | 48 | 79 | 65.9 | 51.7 | 30.072 | 7.26 | 0.0 | 0 | 0.00 | 0.00 | 0.00 | 0.00 |
| 05/06/26 1:36:19 AM | 35 | 0.0 | 1.0 | 48 | 79 | 65.8 | 51.8 | 30.072 | 7.26 | 0.0 | 0 | 0.00 | 0.00 | 0.00 | 0.00 |
| 05/06/26 1:37:32 AM | 38 | 0.0 | 1.0 | 48 | 79 | 65.9 | 51.8 | 30.075 | 7.26 | 0.0 | 0 | 0.00 | 0.00 | 0.00 | 0.00 |
| 05/06/26 1:38:23 AM | 34 | 0.0 | 1.0 | 48 | 79 | 65.9 | 51.8 | 30.073 | 7.26 | 0.0 | 0 | 0.00 | 0.00 | 0.00 | 0.00 |
| 05/06/26 1:39:36 AM | 36 | 0.0 | 1.0 | 48 | 79 | 65.9 | 51.8 | 30.071 | 7.26 | 0.0 | 0 | 0.00 | 0.00 | 0.00 | 0.00 |
| 05/06/26 1:40:28 AM | 32 | 0.0 | 1.0 | 48 | 79 | 65.9 | 51.8 | 30.071 | 7.26 | 0.0 | 0 | 0.00 | 0.00 | 0.00 | 0.00 |
| 05/06/26 1:41:35 AM | 37 | 0.0 | 1.0 | 48 | 79 | 65.9 | 51.8 | 30.071 | 7.26 | 0.0 | 0 | 0.00 | 0.00 | 0.00 | 0.00 |
| 05/06/26 1:42:27 AM | 38 | 0.0 | 1.0 | 48 | 79 | 65.9 | 51.8 | 30.070 | 7.26 | 0.0 | 0 | 0.00 | 0.00 | 0.00 | 0.00 |
| 05/06/26 1:43:18 AM | 38 | 0.0 | 1.0 | 48 | 79 | 65.8 | 51.8 | 30.069 | 7.26 | 0.0 | 0 | 0.00 | 0.00 | 0.00 | 0.00 |
| 05/06/26 1:44:28 AM | 38 | 0.0 | 1.0 | 48 | 79 | 65.9 | 51.8 | 30.071 | 7.26 | 0.0 | 0 | 0.00 | 0.00 | 0.00 | 0.00 |
| 05/06/26 1:45:23 AM | 38 | 0.0 | 1.0 | 48 | 79 | 65.9 | 51.8 | 30.073 | 7.26 | 0.0 | 0 | 0.00 | 0.00 | 0.00 | 0.00 |
| 05/06/26 1:46:30 AM | 38 | 0.0 | 1.0 | 48 | 79 | 65.9 | 51.8 | 30.069 | 7.26 | 0.0 | 0 | 0.00 | 0.00 | 0.00 | 0.00 |
| 05/06/26 1:47:22 AM | 37 | 0.0 | 1.0 | 48 | 79 | 65.9 | 51.8 | 30.071 | 7.26 | 0.0 | 0 | 0.00 | 0.00 | 0.00 | 0.00 |
| 05/06/26 1:48:31 AM | 38 | 0.0 | 1.0 | 48 | 79 | 65.9 | 51.7 | 30.074 | 7.26 | 0.0 | 0 | 0.00 | 0.00 | 0.00 | 0.00 |
| 05/06/26 1:49:26 AM | 32 | 0.0 | 1.0 | 48 | 79 | 65.9 | 51.7 | 30.071 | 7.26 | 0.0 | 0 | 0.00 | 0.00 | 0.00 | 0.00 |
| 05/06/26 1:50:15 AM | 36 | 0.0 | 1.0 | 48 | 79 | 65.9 | 51.8 | 30.081 | 7.26 | 0.0 | 0 | 0.00 | 0.00 | 0.00 | 0.00 |
| 05/06/26 1:51:25 AM | 37 | 0.0 | 1.0 | 48 | 79 | 65.9 | 51.7 | 30.071 | 7.26 | 0.0 | 0 | 0.00 | 0.00 | 0.00 | 0.00 |
| 05/06/26 1:52:17 AM | 37 | 0.0 | 1.0 | 48 | 79 | 65.9 | 51.7 | 30.069 | 7.26 | 0.0 | 0 | 0.00 | 0.00 | 0.00 | 0.00 |
| 05/06/26 1:53:29 AM | 36 | 0.0 | 1.0 | 48 | 79 | 65.9 | 51.7 | 30.071 | 7.26 | 0.0 | 0 | 0.00 | 0.00 | 0.00 | 0.00 |
| 05/06/26 1:54:18 AM | 34 | 0.0 | 1.0 | 48 | 79 | 65.9 | 51.7 | 30.069 | 7.26 | 0.0 | 0 | 0.00 | 0.00 | 0.00 | 0.00 |
| 05/06/26 1:55:31 AM | 38 | 0.0 | 1.0 | 48 | 79 | 65.9 | 51.7 | 30.069 | 7.26 | 0.0 | 0 | 0.00 | 0.00 | 0.00 | 0.00 |
| 05/06/26 1:56:23 AM | 36 | 0.0 | 1.0 | 48 | 79 | 65.9 | 51.7 | 30.070 | 7.26 | 0.0 | 0 | 0.00 | 0.00 | 0.00 | 0.00 |
| 05/06/26 1:57:33 AM | 34 | 0.0 | 1.0 | 48 | 78 | 65.9 | 51.7 | 30.068 | 7.26 | 0.0 | 0 | 0.00 | 0.00 | 0.00 | 0.00 |
| 05/06/26 1:58:21 AM | 34 | 0.0 | 1.0 | 48 | 78 | 65.9 | 51.7 | 30.066 | 7.26 | 0.0 | 0 | 0.00 | 0.00 | 0.00 | 0.00 |
| 05/06/26 1:59:34 AM | 32 | 0.0 | 1.0 | 48 | 78 | 65.8 | 51.7 | 30.068 | 7.26 | 0.0 | 0 | 0.00 | 0.00 | 0.00 | 0.00 |
| 05/06/26 2:00:50 AM | 36 | 0.0 | 1.0 | 48 | 78 | 65.9 | 51.6 | 30.065 | 7.26 | 0.0 | 0 | 0.00 | 0.00 | 0.00 | 0.00 |
| 05/06/26 2:01:21 AM | 34 | 0.0 | 1.0 | 48 | 78 | 65.9 | 51.6 | 30.065 | 7.26 | 0.0 | 0 | 0.00 | 0.00 | 0.00 | 0.00 |
| 05/06/26 2:02:28 AM | 35 | 0.0 | 1.0 | 48 | 78 | 65.8 | 51.6 | 30.065 | 7.26 | 0.0 | 0 | 0.00 | 0.00 | 0.00 | 0.00 |
| 05/06/26 2:03:19 AM | 30 | 0.0 | 1.0 | 48 | 78 | 65.9 | 51.6 | 30.065 | 7.26 | 0.0 | 0 | 0.00 | 0.00 | 0.00 | 0.00 |
| 05/06/26 2:04:32 AM | 30 | 0.0 | 1.0 | 48 | 78 | 65.9 | 51.5 | 30.066 | 7.26 | 0.0 | 0 | 0.00 | 0.00 | 0.00 | 0.00 |
| 05/06/26 2:05:27 AM | 37 | 0.0 | 1.0 | 48 | 78 | 65.9 | 51.5 | 30.066 | 7.26 | 0.0 | 0 | 0.00 | 0.00 | 0.00 | 0.00 |
| 05/06/26 2:06:19 AM | 38 | 0.0 | 1.0 | 48 | 78 | 65.9 | 51.5 | 30.065 | 7.26 | 0.0 | 0 | 0.00 | 0.00 | 0.00 | 0.00 |
| 05/06/26 2:07:29 AM | 38 | 0.0 | 1.0 | 48 | 78 | 65.9 | 51.5 | 30.066 | 7.26 | 0.0 | 0 | 0.00 | 0.00 | 0.00 | 0.00 |
| 05/06/26 2:08:21 AM | 35 | 0.0 | 1.0 | 48 | 78 | 65.9 | 51.5 | 30.068 | 7.26 | 0.0 | 0 | 0.00 | 0.00 | 0.00 | 0.00 |
| 05/06/26 2:09:21 AM | 35 | 0.0 | 1.0 | 48 | 78 | 65.9 | 51.5 | 30.069 | 7.26 | 0.0 | 0 | 0.00 | 0.00 | 0.00 | 0.00 |
| 05/06/26 2:10:34 AM | 30 | 0.0 | 1.0 | 48 | 79 | 65.9 | 51.4 | 30.069 | 7.26 | 0.0 | 0 | 0.00 | 0.00 | 0.00 | 0.00 |
| 05/06/26 2:11:26 AM | 36 | 0.0 | 1.0 | 48 | 79 | 65.9 | 51.4 | 30.066 | 7.26 | 0.0 | 0 | 0.00 | 0.00 | 0.00 | 0.00 |
| 05/06/26 2:12:18 AM | 34 | 0.0 | 1.0 | 48 | 79 | 65.9 | 51.4 | 30.069 | 7.26 | 0.0 | 0 | 0.00 | 0.00 | 0.00 | 0.00 |
| 05/06/26 2:13:28 AM | 34 | 0.0 | 1.0 | 48 | 79 | 65.9 | 51.4 | 30.065 | 7.26 | 0.0 | 0 | 0.00 | 0.00 | 0.00 | 0.00 |
| 05/06/26 2:14:20 AM | 36 | 0.0 | 1.0 | 48 | 79 | 65.9 | 51.3 | 30.067 | 7.26 | 0.0 | 0 | 0.00 | 0.00 | 0.00 | 0.00 |
| 05/06/26 2:15:32 AM | 38 | 0.0 | 1.0 | 48 | 79 | 65.9 | 51.3 | 30.065 | 7.26 | 0.0 | 0 | 0.00 | 0.00 | 0.00 | 0.00 |
| 05/06/26 2:16:24 AM | 37 | 0.0 | 1.0 | 48 | 79 | 65.9 | 51.3 | 30.065 | 7.26 | 0.0 | 0 | 0.00 | 0.00 | 0.00 | 0.00 |
| 05/06/26 2:17:16 AM | 38 | 0.0 | 1.0 | 48 | 79 | 65.9 | 51.2 | 30.066 | 7.26 | 0.0 | 0 | 0.00 | 0.00 | 0.00 | 0.00 |
| 05/06/26 2:18:29 AM | 37 | 0.0 | 1.0 | 48 | 79 | 65.9 | 51.2 | 30.066 | 7.26 | 0.0 | 0 | 0.00 | 0.00 | 0.00 | 0.00 |
| 05/06/26 2:19:18 AM | 35 | 0.0 | 1.0 | 48 | 78 | 65.9 | 51.2 | 30.067 | 7.26 | 0.0 | 0 | 0.00 | 0.00 | 0.00 | 0.00 |
| 05/06/26 2:20:30 AM | 32 | 0.0 | 1.0 | 48 | 78 | 65.9 | 51.2 | 30.067 | 7.26 | 0.0 | 0 | 0.00 | 0.00 | 0.00 | 0.00 |
| 05/06/26 2:21:22 AM | 36 | 0.0 | 1.0 | 48 | 79 | 65.9 | 51.1 | 30.067 | 7.26 | 0.0 | 0 | 0.00 | 0.00 | 0.00 | 0.00 |
| 05/06/26 2:22:35 AM | 36 | 0.0 | 1.0 | 48 | 79 | 65.9 | 51.1 | 30.066 | 7.26 | 0.0 | 0 | 0.00 | 0.00 | 0.00 | 0.00 |
| 05/06/26 2:23:24 AM | 37 | 0.0 | 1.0 | 48 | 78 | 65.9 | 51.0 | 30.067 | 7.26 | 0.0 | 0 | 0.00 | 0.00 | 0.00 | 0.00 |
| 05/06/26 2:24:34 AM | 37 | 0.0 | 1.0 | 48 | 78 | 65.9 | 51.0 | 30.069 | 7.26 | 0.0 | 0 | 0.00 | 0.00 | 0.00 | 0.00 |
| 05/06/26 2:25:26 AM | 38 | 0.0 | 1.0 | 48 | 78 | 65.9 | 50.9 | 30.066 | 7.26 | 0.0 | 0 | 0.00 | 0.00 | 0.00 | 0.00 |
| 05/06/26 2:26:17 AM | 38 | 0.0 | 1.0 | 48 | 78 | 65.9 | 50.9 | 30.065 | 7.26 | 0.0 | 0 | 0.00 | 0.00 | 0.00 | 0.00 |
| 05/06/26 2:27:30 AM | 38 | 0.0 | 1.0 | 48 | 79 | 65.9 | 50.9 | 30.068 | 7.26 | 0.0 | 0 | 0.00 | 0.00 | 0.00 | 0.00 |
| 05/06/26 2:28:19 AM | 38 | 0.0 | 1.0 | 48 | 79 | 65.9 | 50.9 | 30.068 | 7.26 | 0.0 | 0 | 0.00 | 0.00 | 0.00 | 0.00 |
| 05/06/26 2:29:29 AM | 34 | 0.0 | 1.0 | 48 | 79 | 65.9 | 50.8 | 30.066 | 7.26 | 0.0 | 0 | 0.00 | 0.00 | 0.00 | 0.00 |
| 05/06/26 2:30:21 AM | 35 | 0.0 | 1.0 | 48 | 79 | 65.9 | 50.8 | 30.065 | 7.26 | 0.0 | 0 | 0.00 | 0.00 | 0.00 | 0.00 |
| 05/06/26 2:31:34 AM | 38 | 0.0 | 1.0 | 48 | 79 | 65.9 | 50.7 | 30.066 | 7.26 | 0.0 | 0 | 0.00 | 0.00 | 0.00 | 0.00 |
| 05/06/26 2:32:25 AM | 32 | 0.0 | 1.0 | 48 | 79 | 65.9 | 50.7 | 30.070 | 7.26 | 0.0 | 0 | 0.00 | 0.00 | 0.00 | 0.00 |
| 05/06/26 2:33:17 AM | 35 | 0.0 | 1.0 | 48 | 79 | 65.9 | 50.7 | 30.068 | 7.26 | 0.0 | 0 | 0.00 | 0.00 | 0.00 | 0.00 |
| 05/06/26 2:34:27 AM | 30 | 0.0 | 1.0 | 48 | 79 | 65.9 | 50.6 | 30.069 | 7.26 | 0.0 | 0 | 0.00 | 0.00 | 0.00 | 0.00 |
| 05/06/26 2:35:37 AM | 29 | 0.0 | 1.0 | 48 | 79 | 65.8 | 50.6 | 30.068 | 7.26 | 0.0 | 0 | 0.00 | 0.00 | 0.00 | 0.00 |
| 05/06/26 2:36:25 AM | 38 | 0.0 | 1.0 | 48 | 79 | 65.9 | 50.6 | 30.068 | 7.26 | 0.0 | 0 | 0.00 | 0.00 | 0.00 | 0.00 |
| 05/06/26 2:37:17 AM | 36 | 0.0 | 1.0 | 48 | 79 | 65.9 | 50.5 | 30.067 | 7.26 | 0.0 | 0 | 0.00 | 0.00 | 0.00 | 0.00 |
| 05/06/26 2:38:30 AM | 34 | 0.0 | 1.0 | 48 | 79 | 65.8 | 50.5 | 30.070 | 7.26 | 0.0 | 0 | 0.00 | 0.00 | 0.00 | 0.00 |
| 05/06/26 2:39:22 AM | 37 | 0.0 | 1.0 | 48 | 79 | 65.9 | 50.5 | 30.067 | 7.26 | 0.0 | 0 | 0.00 | 0.00 | 0.00 | 0.00 |
| 05/06/26 2:40:29 AM | 36 | 0.0 | 1.0 | 48 | 79 | 65.8 | 50.4 | 30.067 | 7.26 | 0.0 | 0 | 0.00 | 0.00 | 0.00 | 0.00 |
| 05/06/26 2:41:24 AM | 38 | 0.0 | 1.0 | 48 | 79 | 65.8 | 50.4 | 30.069 | 7.26 | 0.0 | 0 | 0.00 | 0.00 | 0.00 | 0.00 |
| 05/06/26 2:42:36 AM | 32 | 0.0 | 1.0 | 48 | 79 | 65.9 | 50.3 | 30.065 | 7.26 | 0.0 | 0 | 0.00 | 0.00 | 0.00 | 0.00 |
| 05/06/26 2:43:28 AM | 37 | 0.0 | 1.0 | 48 | 79 | 65.8 | 50.3 | 30.069 | 7.26 | 0.0 | 0 | 0.00 | 0.00 | 0.00 | 0.00 |
| 05/06/26 2:44:20 AM | 36 | 0.0 | 1.0 | 48 | 79 | 65.8 | 50.3 | 30.068 | 7.26 | 0.0 | 0 | 0.00 | 0.00 | 0.00 | 0.00 |
| 05/06/26 2:45:27 AM | 38 | 0.0 | 1.0 | 48 | 79 | 65.8 | 50.2 | 30.068 | 7.26 | 0.0 | 0 | 0.00 | 0.00 | 0.00 | 0.00 |
| 05/06/26 2:46:19 AM | 36 | 0.0 | 1.0 | 48 | 79 | 65.8 | 50.2 | 30.067 | 7.26 | 0.0 | 0 | 0.00 | 0.00 | 0.00 | 0.00 |
| 05/06/26 2:47:29 AM | 38 | 0.0 | 1.0 | 48 | 79 | 65.8 | 50.1 | 30.067 | 7.26 | 0.0 | 0 | 0.00 | 0.00 | 0.00 | 0.00 |
| 05/06/26 2:48:20 AM | 38 | 0.0 | 1.0 | 48 | 79 | 65.8 | 50.1 | 30.067 | 7.26 | 0.0 | 0 | 0.00 | 0.00 | 0.00 | 0.00 |
| 05/06/26 2:49:30 AM | 34 | 0.0 | 1.0 | 48 | 79 | 65.7 | 50.1 | 30.067 | 7.26 | 0.0 | 0 | 0.00 | 0.00 | 0.00 | 0.00 |
| 05/06/26 2:50:25 AM | 34 | 0.0 | 1.0 | 48 | 79 | 65.8 | 50.0 | 30.066 | 7.26 | 0.0 | 0 | 0.00 | 0.00 | 0.00 | 0.00 |
| 05/06/26 2:51:32 AM | 34 | 0.0 | 1.0 | 48 | 79 | 65.7 | 50.0 | 30.067 | 7.26 | 0.0 | 0 | 0.00 | 0.00 | 0.00 | 0.00 |
| 05/06/26 2:52:27 AM | 35 | 0.0 | 1.0 | 48 | 79 | 65.7 | 49.9 | 30.065 | 7.26 | 0.0 | 0 | 0.00 | 0.00 | 0.00 | 0.00 |
| 05/06/26 2:53:16 AM | 37 | 0.0 | 1.0 | 48 | 79 | 65.7 | 49.9 | 30.066 | 7.26 | 0.0 | 0 | 0.00 | 0.00 | 0.00 | 0.00 |
| 05/06/26 2:54:28 AM | 36 | 0.0 | 1.0 | 48 | 79 | 65.7 | 49.9 | 30.066 | 7.26 | 0.0 | 0 | 0.00 | 0.00 | 0.00 | 0.00 |
| 05/06/26 2:55:20 AM | 38 | 0.0 | 1.0 | 48 | 79 | 65.7 | 49.9 | 30.064 | 7.26 | 0.0 | 0 | 0.00 | 0.00 | 0.00 | 0.00 |
| 05/06/26 2:56:27 AM | 37 | 0.0 | 1.0 | 48 | 79 | 65.7 | 49.8 | 30.066 | 7.26 | 0.0 | 0 | 0.00 | 0.00 | 0.00 | 0.00 |
| 05/06/26 2:57:19 AM | 36 | 0.0 | 1.0 | 48 | 79 | 65.7 | 49.8 | 30.066 | 7.26 | 0.0 | 0 | 0.00 | 0.00 | 0.00 | 0.00 |
| 05/06/26 2:58:32 AM | 35 | 0.0 | 1.0 | 48 | 79 | 65.7 | 49.8 | 30.065 | 7.26 | 0.0 | 0 | 0.00 | 0.00 | 0.00 | 0.00 |
| 05/06/26 2:59:24 AM | 38 | 0.0 | 1.0 | 48 | 79 | 65.7 | 49.7 | 30.066 | 7.26 | 0.0 | 0 | 0.00 | 0.00 | 0.00 | 0.00 |
| 05/06/26 3:00:37 AM | 38 | 0.0 | 1.0 | 48 | 79 | 65.7 | 49.7 | 30.065 | 7.26 | 0.0 | 0 | 0.00 | 0.00 | 0.00 | 0.00 |
| 05/06/26 3:01:25 AM | 35 | 0.0 | 1.0 | 48 | 79 | 65.7 | 49.6 | 30.066 | 7.26 | 0.0 | 0 | 0.00 | 0.00 | 0.00 | 0.00 |
| 05/06/26 3:02:35 AM | 36 | 0.0 | 1.0 | 48 | 79 | 65.7 | 49.6 | 30.066 | 7.26 | 0.0 | 0 | 0.00 | 0.00 | 0.00 | 0.00 |
| 05/06/26 3:03:27 AM | 31 | 0.0 | 1.0 | 48 | 79 | 65.7 | 49.6 | 30.063 | 7.26 | 0.0 | 0 | 0.00 | 0.00 | 0.00 | 0.00 |
| 05/06/26 3:04:19 AM | 30 | 0.0 | 1.0 | 48 | 79 | 65.7 | 49.5 | 30.064 | 7.26 | 0.0 | 0 | 0.00 | 0.00 | 0.00 | 0.00 |
| 05/06/26 3:05:32 AM | 28 | 0.0 | 1.0 | 48 | 79 | 65.7 | 49.5 | 30.063 | 7.26 | 0.0 | 0 | 0.00 | 0.00 | 0.00 | 0.00 |
| 05/06/26 3:06:24 AM | 34 | 0.0 | 1.0 | 48 | 79 | 65.7 | 49.5 | 30.063 | 7.26 | 0.0 | 0 | 0.00 | 0.00 | 0.00 | 0.00 |
| 05/06/26 3:07:30 AM | 37 | 0.0 | 1.0 | 48 | 79 | 65.7 | 49.4 | 30.063 | 7.26 | 0.0 | 0 | 0.00 | 0.00 | 0.00 | 0.00 |
| 05/06/26 3:08:22 AM | 37 | 0.0 | 1.0 | 48 | 79 | 65.7 | 49.4 | 30.064 | 7.26 | 0.0 | 0 | 0.00 | 0.00 | 0.00 | 0.00 |
| 05/06/26 3:09:35 AM | 37 | 0.0 | 1.0 | 48 | 79 | 65.8 | 49.4 | 30.065 | 7.26 | 0.0 | 0 | 0.00 | 0.00 | 0.00 | 0.00 |
| 05/06/26 3:10:27 AM | 36 | 0.0 | 1.0 | 48 | 79 | 65.7 | 49.4 | 30.064 | 7.26 | 0.0 | 0 | 0.00 | 0.00 | 0.00 | 0.00 |
| 05/06/26 3:11:19 AM | 38 | 0.0 | 1.0 | 48 | 79 | 65.7 | 49.4 | 30.065 | 7.26 | 0.0 | 0 | 0.00 | 0.00 | 0.00 | 0.00 |
| 05/06/26 3:12:29 AM | 38 | 0.0 | 1.0 | 48 | 79 | 65.8 | 49.3 | 30.067 | 7.26 | 0.0 | 0 | 0.00 | 0.00 | 0.00 | 0.00 |
| 05/06/26 3:13:21 AM | 34 | 0.0 | 1.0 | 48 | 79 | 65.7 | 49.3 | 30.066 | 7.26 | 0.0 | 0 | 0.00 | 0.00 | 0.00 | 0.00 |
| 05/06/26 3:14:30 AM | 37 | 0.0 | 1.0 | 48 | 79 | 65.8 | 49.3 | 30.065 | 7.26 | 0.0 | 0 | 0.00 | 0.00 | 0.00 | 0.00 |
| 05/06/26 3:15:25 AM | 38 | 0.0 | 1.0 | 48 | 79 | 65.7 | 49.2 | 30.065 | 7.26 | 0.0 | 0 | 0.00 | 0.00 | 0.00 | 0.00 |
| 05/06/26 3:16:35 AM | 38 | 0.0 | 1.0 | 48 | 79 | 65.7 | 49.2 | 30.063 | 7.26 | 0.0 | 0 | 0.00 | 0.00 | 0.00 | 0.00 |
| 05/06/26 3:17:24 AM | 37 | 0.0 | 1.0 | 48 | 79 | 65.7 | 49.2 | 30.065 | 7.26 | 0.0 | 0 | 0.00 | 0.00 | 0.00 | 0.00 |
| 05/06/26 3:18:37 AM | 37 | 0.0 | 1.0 | 48 | 79 | 65.7 | 49.1 | 30.064 | 7.26 | 0.0 | 0 | 0.00 | 0.00 | 0.00 | 0.00 |
| 05/06/26 3:19:29 AM | 37 | 0.0 | 1.0 | 48 | 79 | 65.7 | 49.1 | 30.065 | 7.26 | 0.0 | 0 | 0.00 | 0.00 | 0.00 | 0.00 |
| 05/06/26 3:20:20 AM | 37 | 0.0 | 1.0 | 48 | 79 | 65.7 | 49.1 | 30.067 | 7.26 | 0.0 | 0 | 0.00 | 0.00 | 0.00 | 0.00 |
| 05/06/26 3:21:30 AM | 34 | 0.0 | 1.0 | 48 | 79 | 65.7 | 49.0 | 30.066 | 7.26 | 0.0 | 0 | 0.00 | 0.00 | 0.00 | 0.00 |
| 05/06/26 3:22:22 AM | 36 | 0.0 | 1.0 | 48 | 79 | 65.7 | 49.0 | 30.064 | 7.26 | 0.0 | 0 | 0.00 | 0.00 | 0.00 | 0.00 |
| 05/06/26 3:23:29 AM | 35 | 0.0 | 1.0 | 48 | 79 | 65.7 | 49.0 | 30.064 | 7.26 | 0.0 | 0 | 0.00 | 0.00 | 0.00 | 0.00 |
| 05/06/26 3:24:24 AM | 32 | 0.0 | 1.0 | 48 | 79 | 65.7 | 49.0 | 30.063 | 7.26 | 0.0 | 0 | 0.00 | 0.00 | 0.00 | 0.00 |
| 05/06/26 3:25:34 AM | 37 | 0.0 | 1.0 | 48 | 79 | 65.7 | 49.0 | 30.063 | 7.26 | 0.0 | 0 | 0.00 | 0.00 | 0.00 | 0.00 |
| 05/06/26 3:26:26 AM | 34 | 0.0 | 1.0 | 48 | 79 | 65.7 | 48.9 | 30.066 | 7.26 | 0.0 | 0 | 0.00 | 0.00 | 0.00 | 0.00 |
| 05/06/26 3:27:17 AM | 38 | 0.0 | 1.0 | 48 | 79 | 65.7 | 48.9 | 30.065 | 7.26 | 0.0 | 0 | 0.00 | 0.00 | 0.00 | 0.00 |
| 05/06/26 3:28:27 AM | 36 | 0.0 | 1.0 | 48 | 79 | 65.7 | 48.8 | 30.065 | 7.26 | 0.0 | 0 | 0.00 | 0.00 | 0.00 | 0.00 |
| 05/06/26 3:29:19 AM | 38 | 0.0 | 1.0 | 48 | 79 | 65.7 | 48.8 | 30.066 | 7.26 | 0.0 | 0 | 0.00 | 0.00 | 0.00 | 0.00 |
| 05/06/26 3:30:32 AM | 38 | 0.0 | 1.0 | 48 | 79 | 65.7 | 48.8 | 30.066 | 7.26 | 0.0 | 0 | 0.00 | 0.00 | 0.00 | 0.00 |
| 05/06/26 3:31:21 AM | 38 | 0.0 | 1.0 | 48 | 79 | 65.7 | 48.8 | 30.067 | 7.26 | 0.0 | 0 | 0.00 | 0.00 | 0.00 | 0.00 |
| 05/06/26 3:32:31 AM | 37 | 0.0 | 1.0 | 48 | 79 | 65.7 | 48.7 | 30.064 | 7.26 | 0.0 | 0 | 0.00 | 0.00 | 0.00 | 0.00 |
| 05/06/26 3:33:20 AM | 38 | 0.0 | 1.0 | 48 | 79 | 65.7 | 48.7 | 30.064 | 7.26 | 0.0 | 0 | 0.00 | 0.00 | 0.00 | 0.00 |
| 05/06/26 3:34:33 AM | 36 | 0.0 | 1.0 | 48 | 79 | 65.7 | 48.7 | 30.066 | 7.26 | 0.0 | 0 | 0.00 | 0.00 | 0.00 | 0.00 |
| 05/06/26 3:35:24 AM | 30 | 0.0 | 1.0 | 48 | 79 | 65.7 | 48.7 | 30.065 | 7.26 | 0.0 | 0 | 0.00 | 0.00 | 0.00 | 0.00 |
| 05/06/26 3:36:34 AM | 37 | 0.0 | 1.0 | 48 | 79 | 65.7 | 48.6 | 30.065 | 7.26 | 0.0 | 0 | 0.00 | 0.00 | 0.00 | 0.00 |
| 05/06/26 3:37:26 AM | 34 | 0.0 | 1.0 | 48 | 80 | 65.6 | 48.6 | 30.065 | 7.26 | 0.0 | 0 | 0.00 | 0.00 | 0.00 | 0.00 |
| 05/06/26 3:38:18 AM | 37 | 0.0 | 1.0 | 48 | 80 | 65.6 | 48.6 | 30.063 | 7.26 | 0.0 | 0 | 0.00 | 0.00 | 0.00 | 0.00 |
| 05/06/26 3:39:25 AM | 34 | 0.0 | 1.0 | 48 | 80 | 65.6 | 48.5 | 30.067 | 7.26 | 0.0 | 0 | 0.00 | 0.00 | 0.00 | 0.00 |
| 05/06/26 3:40:17 AM | 37 | 0.0 | 1.0 | 48 | 80 | 65.6 | 48.5 | 30.065 | 7.26 | 0.0 | 0 | 0.00 | 0.00 | 0.00 | 0.00 |
| 05/06/26 3:41:27 AM | 38 | 0.0 | 1.0 | 48 | 80 | 65.6 | 48.5 | 30.066 | 7.26 | 0.0 | 0 | 0.00 | 0.00 | 0.00 | 0.00 |
| 05/06/26 3:42:22 AM | 36 | 0.0 | 1.0 | 48 | 80 | 65.6 | 48.5 | 30.064 | 7.26 | 0.0 | 0 | 0.00 | 0.00 | 0.00 | 0.00 |
| 05/06/26 3:43:31 AM | 32 | 0.0 | 1.0 | 48 | 80 | 65.6 | 48.4 | 30.065 | 7.26 | 0.0 | 0 | 0.00 | 0.00 | 0.00 | 0.00 |
| 05/06/26 3:44:20 AM | 34 | 0.0 | 1.0 | 48 | 80 | 65.6 | 48.4 | 30.068 | 7.26 | 0.0 | 0 | 0.00 | 0.00 | 0.00 | 0.00 |
| 05/06/26 3:45:54 AM | 38 | 0.0 | 1.0 | 48 | 80 | 65.6 | 48.4 | 30.064 | 7.26 | 0.0 | 0 | 0.00 | 0.00 | 0.00 | 0.00 |
| 05/06/26 3:46:28 AM | 38 | 0.0 | 1.0 | 48 | 80 | 65.6 | 48.3 | 30.064 | 7.26 | 0.0 | 0 | 0.00 | 0.00 | 0.00 | 0.00 |
| 05/06/26 3:47:20 AM | 37 | 0.0 | 1.0 | 48 | 80 | 65.6 | 48.3 | 30.068 | 7.26 | 0.0 | 0 | 0.00 | 0.00 | 0.00 | 0.00 |
| 05/06/26 3:48:30 AM | 36 | 0.0 | 1.0 | 48 | 79 | 65.6 | 48.3 | 30.068 | 7.26 | 0.0 | 0 | 0.00 | 0.00 | 0.00 | 0.00 |
| 05/06/26 3:49:22 AM | 37 | 0.0 | 1.0 | 48 | 79 | 65.6 | 48.3 | 30.070 | 7.26 | 0.0 | 0 | 0.00 | 0.00 | 0.00 | 0.00 |
| 05/06/26 3:50:32 AM | 34 | 0.0 | 1.0 | 48 | 79 | 65.6 | 48.2 | 30.068 | 7.26 | 0.0 | 0 | 0.00 | 0.00 | 0.00 | 0.00 |
| 05/06/26 3:51:23 AM | 32 | 0.0 | 1.0 | 48 | 79 | 65.6 | 48.2 | 30.069 | 7.26 | 0.0 | 0 | 0.00 | 0.00 | 0.00 | 0.00 |
| 05/06/26 3:52:33 AM | 36 | 0.0 | 1.0 | 48 | 79 | 65.6 | 48.1 | 30.068 | 7.26 | 0.0 | 0 | 0.00 | 0.00 | 0.00 | 0.00 |
| 05/06/26 3:53:25 AM | 38 | 0.0 | 1.0 | 48 | 79 | 65.6 | 48.1 | 30.069 | 7.26 | 0.0 | 0 | 0.00 | 0.00 | 0.00 | 0.00 |
| 05/06/26 3:54:17 AM | 32 | 0.0 | 1.0 | 48 | 79 | 65.6 | 48.1 | 30.070 | 7.26 | 0.0 | 0 | 0.00 | 0.00 | 0.00 | 0.00 |
| 05/06/26 3:55:27 AM | 37 | 0.0 | 1.0 | 48 | 80 | 65.6 | 48.0 | 30.067 | 7.26 | 0.0 | 0 | 0.00 | 0.00 | 0.00 | 0.00 |
| 05/06/26 3:56:16 AM | 38 | 0.0 | 1.0 | 48 | 80 | 65.6 | 48.0 | 30.068 | 7.26 | 0.0 | 0 | 0.00 | 0.00 | 0.00 | 0.00 |
| 05/06/26 3:57:29 AM | 38 | 0.0 | 1.0 | 48 | 80 | 65.6 | 47.9 | 30.069 | 7.26 | 0.0 | 0 | 0.00 | 0.00 | 0.00 | 0.00 |
| 05/06/26 3:58:21 AM | 38 | 0.0 | 1.0 | 48 | 80 | 65.5 | 47.9 | 30.069 | 7.26 | 0.0 | 0 | 0.00 | 0.00 | 0.00 | 0.00 |
| 05/06/26 3:59:34 AM | 38 | 0.0 | 1.0 | 48 | 80 | 65.5 | 47.8 | 30.068 | 7.26 | 0.0 | 0 | 0.00 | 0.00 | 0.00 | 0.00 |
| 05/06/26 4:00:23 AM | 38 | 0.0 | 1.0 | 48 | 80 | 65.5 | 47.8 | 30.066 | 7.26 | 0.0 | 0 | 0.00 | 0.00 | 0.00 | 0.00 |
| 05/06/26 4:01:33 AM | 38 | 0.0 | 1.0 | 48 | 80 | 65.5 | 47.8 | 30.067 | 7.26 | 0.0 | 0 | 0.00 | 0.00 | 0.00 | 0.00 |
| 05/06/26 4:02:24 AM | 38 | 0.0 | 1.0 | 48 | 80 | 65.5 | 47.8 | 30.070 | 7.26 | 0.0 | 0 | 0.00 | 0.00 | 0.00 | 0.00 |
| 05/06/26 4:03:16 AM | 34 | 0.0 | 1.0 | 48 | 80 | 65.5 | 47.7 | 30.070 | 7.26 | 0.0 | 0 | 0.00 | 0.00 | 0.00 | 0.00 |
| 05/06/26 4:04:29 AM | 38 | 0.0 | 1.0 | 48 | 80 | 65.4 | 47.7 | 30.068 | 7.26 | 0.0 | 0 | 0.00 | 0.00 | 0.00 | 0.00 |
| 05/06/26 4:05:21 AM | 36 | 0.0 | 1.0 | 48 | 80 | 65.4 | 47.7 | 30.069 | 7.26 | 0.0 | 0 | 0.00 | 0.00 | 0.00 | 0.00 |
| 05/06/26 4:06:31 AM | 29 | 0.0 | 1.0 | 48 | 80 | 65.4 | 47.7 | 30.067 | 7.26 | 0.0 | 0 | 0.00 | 0.00 | 0.00 | 0.00 |
| 05/06/26 4:07:23 AM | 32 | 0.0 | 1.0 | 48 | 80 | 65.4 | 47.7 | 30.067 | 7.26 | 0.0 | 0 | 0.00 | 0.00 | 0.00 | 0.00 |
| 05/06/26 4:08:45 AM | 38 | 0.0 | 1.0 | 48 | 80 | 65.3 | 47.6 | 30.066 | 7.26 | 0.0 | 0 | 0.00 | 0.00 | 0.00 | 0.00 |
| 05/06/26 4:09:19 AM | 36 | 0.0 | 1.0 | 48 | 80 | 65.3 | 47.7 | 30.069 | 7.26 | 0.0 | 0 | 0.00 | 0.00 | 0.00 | 0.00 |
| 05/06/26 4:10:29 AM | 38 | 0.0 | 1.0 | 48 | 81 | 65.3 | 47.6 | 30.067 | 7.26 | 0.0 | 0 | 0.00 | 0.00 | 0.00 | 0.00 |
| 05/06/26 4:11:17 AM | 35 | 0.0 | 1.0 | 48 | 80 | 65.3 | 47.6 | 30.068 | 7.26 | 0.0 | 0 | 0.00 | 0.00 | 0.00 | 0.00 |
| 05/06/26 4:12:27 AM | 38 | 0.0 | 1.0 | 48 | 81 | 65.3 | 47.6 | 30.067 | 7.26 | 0.0 | 0 | 0.00 | 0.00 | 0.00 | 0.00 |
| 05/06/26 4:13:22 AM | 37 | 0.0 | 1.0 | 48 | 81 | 65.3 | 47.6 | 30.068 | 7.26 | 0.0 | 0 | 0.00 | 0.00 | 0.00 | 0.00 |
| 05/06/26 4:14:35 AM | 37 | 0.0 | 1.0 | 48 | 81 | 65.4 | 47.6 | 30.068 | 7.26 | 0.0 | 0 | 0.00 | 0.00 | 0.00 | 0.00 |
| 05/06/26 4:15:27 AM | 38 | 0.0 | 1.0 | 48 | 81 | 65.4 | 47.6 | 30.068 | 7.26 | 0.0 | 0 | 0.00 | 0.00 | 0.00 | 0.00 |
| 05/06/26 4:16:19 AM | 36 | 0.0 | 1.0 | 48 | 81 | 65.4 | 47.6 | 30.068 | 7.26 | 0.0 | 0 | 0.00 | 0.00 | 0.00 | 0.00 |
| 05/06/26 4:17:26 AM | 36 | 0.0 | 1.0 | 48 | 81 | 65.4 | 47.5 | 30.068 | 7.26 | 0.0 | 0 | 0.00 | 0.00 | 0.00 | 0.00 |
| 05/06/26 4:18:18 AM | 38 | 0.0 | 1.0 | 48 | 81 | 65.4 | 47.6 | 30.068 | 7.26 | 0.0 | 0 | 0.00 | 0.00 | 0.00 | 0.00 |
| 05/06/26 4:19:30 AM | 37 | 0.0 | 1.0 | 48 | 81 | 65.4 | 47.5 | 30.068 | 7.26 | 0.0 | 0 | 0.00 | 0.00 | 0.00 | 0.00 |
| 05/06/26 4:20:22 AM | 34 | 0.0 | 1.0 | 48 | 81 | 65.4 | 47.5 | 30.069 | 7.26 | 0.0 | 0 | 0.00 | 0.00 | 0.00 | 0.00 |
| 05/06/26 4:21:35 AM | 32 | 0.0 | 1.0 | 48 | 81 | 65.4 | 47.5 | 30.066 | 7.26 | 0.0 | 0 | 0.00 | 0.00 | 0.00 | 0.00 |
| 05/06/26 4:22:24 AM | 34 | 0.0 | 1.0 | 48 | 81 | 65.4 | 47.5 | 30.070 | 7.26 | 0.0 | 0 | 0.00 | 0.00 | 0.00 | 0.00 |
| 05/06/26 4:23:34 AM | 38 | 0.0 | 1.0 | 48 | 81 | 65.4 | 47.5 | 30.066 | 7.26 | 0.0 | 0 | 0.00 | 0.00 | 0.00 | 0.00 |
| 05/06/26 4:24:23 AM | 31 | 0.0 | 1.0 | 48 | 81 | 65.4 | 47.5 | 30.069 | 7.26 | 0.0 | 0 | 0.00 | 0.00 | 0.00 | 0.00 |
| 05/06/26 4:25:18 AM | 34 | 0.0 | 1.0 | 48 | 81 | 65.5 | 47.5 | 30.069 | 7.26 | 0.0 | 0 | 0.00 | 0.00 | 0.00 | 0.00 |
| 05/06/26 4:26:28 AM | 38 | 0.0 | 1.0 | 48 | 81 | 65.5 | 47.5 | 30.068 | 7.26 | 0.0 | 0 | 0.00 | 0.00 | 0.00 | 0.00 |
| 05/06/26 4:27:35 AM | 37 | 0.0 | 1.0 | 48 | 81 | 65.5 | 47.5 | 30.070 | 7.26 | 0.0 | 0 | 0.00 | 0.00 | 0.00 | 0.00 |
| 05/06/26 4:28:26 AM | 34 | 0.0 | 1.0 | 48 | 81 | 65.4 | 47.5 | 30.070 | 7.26 | 0.0 | 0 | 0.00 | 0.00 | 0.00 | 0.00 |
| 05/06/26 4:29:21 AM | 36 | 0.0 | 1.0 | 48 | 81 | 65.5 | 47.5 | 30.069 | 7.26 | 0.0 | 0 | 0.00 | 0.00 | 0.00 | 0.00 |
University Police wind advisory reference
For campus closure information please call the campus Emergency Hotline at (909) 537-5999
© All rights reserved. Unauthorized duplication or distribution is prohibited
Never base important decisions on this or any weather information obtained from the Internet
California State University, San Bernardino
5500 University Parkway, San Bernardino, CA. 92407
Phone: (909) 537-5108, Email: Weather Webmaster
Last Updated: